Flag for Cameroon Weather past 2 weeks in Yaoundé, Cameroon

Now
72 °F

Partly sunny.


Feels Like: 71 °F
Forecast: 67 / 80 °F
Wind: 7 mph from West

Location: Yaounde Airport

Current Time: Aug 2, 2015 at 9:23:46 AM

Latest Report: Aug 2, 2015 at 9:00 AM


Visibility: N/A

Pressure: 30.12 "Hg (27.72 "Hg at 717m altitude)

Humidity: 83%

Dew point: 66 °F

Location of YaoundéLocation

Historic Weather in Yaoundé — Graph

°F

Yaoundé temperature yesterday

Maximum temperature yesterday: 79 °F (at 12:00 PM)
Minimum temperature yesterday: 68 °F (at 12:00 AM)
Average temperature yesterday: 73 °F

Past Weeks' High & Low Weather Summary

 TemperatureHumidityPressure
High81 °F (Jul 22, 12:00 PM)100% (Jul 25, 5:00 AM)30.15 "Hg (Jul 25, 5:00 AM)
Low66 °F (Jul 28, 6:00 AM)66% (Jul 22, 12:00 PM)29.95 "Hg (Jul 19, 5:00 PM)
Average72 °F85%30.07 "Hg
* Reported Jul 18 8:00 AM — Aug 2 8:00 AM, Yaoundé, Weather by CustomWeather, © 2015

Note: Actual official high and low records may vary slightly from our data, if they occured in-between our weather recording intervals... More about our weather records

Advertising

Yaoundé weather history for previous 24 hours

 ConditionsComfort  
Time TempWeatherWind HumidityBarometerVisibility
8:00 AM
Sun, Aug 2
72 °FPartly sunny.3 mph88%30.09 "HgN/A
7:00 AM70 °FPartly sunny.2 mph88%30.07 "HgN/A
6:00 AM70 °FPassing clouds.3 mph88%30.07 "HgN/A
5:00 AM70 °FPartly cloudy.3 mph88%30.07 "HgN/A
3:00 AM70 °FPartly cloudy.6 mph88%30.04 "Hg6 mi
2:00 AM70 °FPartly cloudy.5 mph88%30.04 "Hg6 mi
1:00 AM70 °FPartly cloudy.3 mph94%30.07 "Hg4 mi
12:00 AM72 °FMild.3 mph88%30.07 "Hg6 mi
11:00 PM
Sat, Aug 1
72 °FPartly cloudy.3 mph88%30.07 "Hg6 mi
10:00 PM72 °FPartly cloudy.3 mph88%30.09 "Hg6 mi
9:00 PM72 °FPassing clouds.3 mph88%30.04 "HgN/A
8:00 PM72 °FPassing clouds.2 mph88%30.04 "HgN/A
7:00 PM73 °FPassing clouds.5 mph83%30.01 "HgN/A
6:00 PM75 °FScattered clouds.6 mph78%29.98 "HgN/A
5:00 PM77 °FPartly sunny.7 mph74%29.98 "HgN/A
4:00 PM77 °FPartly sunny.8 mph74%29.98 "HgN/A
3:00 PM77 °FPartly sunny.10 mph74%30.01 "HgN/A
2:00 PM79 °FPartly sunny.8 mph70%30.04 "HgN/A
1:00 PM79 °FPartly sunny.7 mph70%30.07 "HgN/A
12:00 PM79 °FPartly sunny.3 mph70%30.07 "HgN/A
11:00 AM75 °FPartly sunny.3 mph78%30.09 "HgN/A
10:00 AM73 °FPartly sunny.5 mph83%30.09 "HgN/A
9:00 AM72 °FPartly sunny.6 mph83%30.09 "HgN/A
Weather by CustomWeather, © 2015

See weather overviewHow to use our weather pages